GW0031 Weather Reports


time (UTC)temp
C
wind
direction
speed
KPH
gust
KPH
rain 1hr
cm
rain 24hr
cm
rain mn
cm
humidity
%
barometer
mb
20260509234559 16 155 8.0 14.5 0.00 0.00 0.00 82 1021.5
20260509234556 15 181 6.4 9.7 0.00 0.00 0.00 83 1014.8
20260509234536 13 0 0.0 8.0 0.00 0.00 0.00 84 1012.5
20260509233055 16 160 8.0 9.7 0.00 0.00 0.00 80 1014.5
20260509233053 16 155 8.0 14.5 0.00 0.00 0.00 82 1021.3
20260509233034 14 158 0.0 3.2 0.00 0.00 0.00 85 1012.4
20260509231553 16 155 8.0 14.5 0.00 0.00 0.00 82 1021.3
20260509231536 14 189 0.0 1.6 0.00 0.00 0.00 84 1012.5
20260509230059 16 187 6.4 9.7 0.00 0.00 0.00 78 1014.7
20260509230052 16 186 8.0 12.9 0.00 0.00 0.00 82 1021.3
20260509230036 15 0 0.0 1.6 0.00 0.00 0.00 83 1012.5
20260509224553 16 128 3.2 6.4 0.00 0.00 0.00 77 1014.9
20260509224550 16 154 6.4 12.9 0.00 0.00 0.00 81 1021.6
20260509224540 14 217 0.0 1.6 0.00 0.00 0.00 84 1012.9
20260509223100 16 162 8.0 14.5 0.00 0.00 0.00 80 1021.8
20260509223054 17 78 4.8 6.4 0.00 0.00 0.00 76 1014.9
20260509223034 13 0 0.0 0.0 0.00 0.00 0.00 83 1013.1
20260509221554 16 159 8.0 14.5 0.00 0.00 0.00 80 1021.7
20260509221552 16 62 0.0 3.2 0.00 0.00 0.00 76 1015.2
20260509221539 15 0 0.0 0.0 0.00 0.00 0.00 83 1013.3
20260509220057 16 0 0.0 4.8 0.00 0.00 0.00 78 1015.3
20260509220052 16 189 9.7 17.7 0.00 0.00 0.00 80 1021.9
20260509220033 15 0 0.0 3.2 0.00 0.00 0.00 82 1013.4
20260509214556 16 62 4.8 6.4 0.00 0.00 0.00 78 1015.4
20260509214551 16 156 6.4 16.1 0.00 0.00 0.00 80 1021.9
20260509214532 15 0 0.0 0.0 0.00 0.00 0.00 82 1013.3
20260509213105 16 157 3.2 14.5 0.00 0.00 0.00 75 1015.4
20260509213053 16 173 6.4 14.5 0.00 0.00 0.00 80 1021.9
20260509213033 16 0 0.0 1.6 0.00 0.00 0.00 80 1013.5
20260509211603 16 171 6.4 14.5 0.00 0.00 0.00 75 1015.2
20260509211554 17 151 6.4 12.9 0.00 0.00 0.00 79 1021.9
20260509211537 15 258 0.0 1.6 0.00 0.00 0.00 82 1013.7
20260509210056 17 186 6.4 11.3 0.00 0.00 0.00 73 1015.1
20260509210034 15 243 3.2 6.4 0.00 0.00 0.00 83 1013.8
20260509204557 17 170 9.7 16.1 0.00 0.00 0.00 79 1022.0
20260509204555 17 174 6.4 12.9 0.00 0.00 0.00 72 1015.0
20260509204533 14 233 3.2 6.4 0.00 0.00 0.00 83 1013.8
20260509203055 17 188 6.4 12.9 0.00 0.00 0.00 78 1022.0
20260509203053 17 182 6.4 14.5 0.00 0.00 0.00 72 1015.1
20260509203034 16 0 1.6 4.8 0.00 0.00 0.00 77 1014.0
20260509201605 18 176 8.0 12.9 0.00 0.00 0.00 65 1015.3
20260509201601 17 171 6.4 12.9 0.00 0.00 0.00 78 1022.2
20260509201544 15 0 0.0 0.0 0.00 0.00 0.00 76 1014.0
20260509200107 17 156 6.4 11.3 0.00 0.00 0.00 78 1022.1
20260509200054 19 202 8.0 11.3 0.00 0.00 0.00 62 1015.3
20260509200031 15 0 0.0 0.0 0.00 0.00 0.00 75 1014.2
20260509194556 20 186 8.0 9.7 0.00 0.00 0.00 59 1015.4
20260509194552 17 155 4.8 11.3 0.00 0.00 0.00 78 1022.1
20260509194536 15 0 0.0 3.2 0.00 0.00 0.00 78 1014.2
20260509193057 17 163 6.4 11.3 0.00 0.00 0.00 78 1022.3
20260509193049 20 188 6.4 8.0 0.00 0.00 0.00 56 1015.4
20260509193032 15 239 0.0 3.2 0.00 0.00 0.00 79 1014.3
20260509191604 21 202 6.4 11.3 0.00 0.00 0.00 53 1015.4
20260509191553 17 161 4.8 11.3 0.00 0.00 0.00 78 1022.2
20260509191535 16 0 0.0 1.6 0.00 0.00 0.00 75 1014.3
20260509190057 21 223 6.4 11.3 0.00 0.00 0.00 52 1015.3
20260509190054 18 169 3.2 12.9 0.00 0.00 0.00 77 1022.3
20260509190035 16 0 0.0 1.6 0.00 0.00 0.00 68 1014.4
20260509184601 18 166 4.8 11.3 0.00 0.00 0.00 76 1022.2
20260509184532 17 0 0.0 1.6 0.00 0.00 0.00 66 1014.4
20260509183100 21 224 6.4 11.3 0.00 0.00 0.00 52 1015.5
20260509183059 18 151 4.8 11.3 0.00 0.00 0.00 76 1022.1
20260509183035 17 319 0.0 3.2 0.00 0.00 0.00 67 1014.2
20260509181620 18 163 6.4 14.5 0.00 0.00 0.00 76 1022.0
20260509181602 22 221 6.4 11.3 0.00 0.00 0.00 51 1015.4
20260509181539 18 97 0.0 3.2 0.00 0.00 0.00 63 1014.1
20260509180110 22 221 8.0 12.9 0.00 0.00 0.00 50 1015.3
20260509180057 18 163 6.4 12.9 0.00 0.00 0.00 75 1022.0
20260509180034 18 101 1.6 8.0 0.00 0.00 0.00 67 1013.9
20260509174558 18 169 3.2 6.4 0.00 0.00 0.00 75 1021.7
20260509174553 22 209 6.4 11.3 0.00 0.00 0.00 49 1015.2
20260509174535 20 0 0.0 1.6 0.00 0.00 0.00 60 1013.5
20260509173104 18 182 3.2 8.0 0.00 0.00 0.00 74 1021.6
20260509173102 22 219 6.4 11.3 0.00 0.00 0.00 50 1015.1
20260509173035 19 235 1.6 4.8 0.00 0.00 0.00 63 1013.4
20260509171557 22 206 6.4 11.3 0.00 0.00 0.00 49 1014.9
20260509171552 19 185 3.2 8.0 0.00 0.00 0.00 73 1021.6
20260509171539 20 246 1.6 4.8 0.00 0.00 0.00 60 1013.4
20260509170058 20 175 4.8 11.3 0.00 0.00 0.00 72 1021.5
20260509170054 23 233 6.4 11.3 0.00 0.00 0.00 49 1014.9
20260509170035 22 0 0.0 6.4 0.00 0.00 0.00 53 1013.3
20260509164555 20 162 3.2 12.9 0.00 0.00 0.00 70 1021.2
20260509164553 23 248 8.0 12.9 0.00 0.00 0.00 48 1014.6
20260509164541 20 233 1.6 4.8 0.00 0.00 0.00 57 1013.2
20260509163056 23 260 8.0 11.3 0.00 0.00 0.00 48 1014.6
20260509163037 20 248 1.6 3.2 0.00 0.00 0.00 58 1012.9
20260509161602 24 259 6.4 9.7 0.00 0.00 0.00 47 1014.4
20260509161600 21 144 4.8 11.3 0.00 0.00 0.00 68 1020.8
20260509161536 21 244 1.6 4.8 0.00 0.00 0.00 55 1012.6
20260509160056 21 188 4.8 9.7 0.00 0.00 0.00 67 1020.7
20260509160052 24 265 4.8 8.0 0.00 0.00 0.00 46 1014.2
20260509160035 22 0 0.0 1.6 0.00 0.00 0.00 49 1012.5
20260509154556 22 162 1.6 11.3 0.00 0.00 0.00 65 1020.5
20260509154554 25 285 4.8 8.0 0.00 0.00 0.00 45 1014.2
20260509154535 24 0 0.0 1.6 0.00 0.00 0.00 45 1012.4
20260509153100 26 302 1.6 4.8 0.00 0.00 0.00 43 1014.3
20260509153057 22 145 3.2 11.3 0.00 0.00 0.00 64 1020.6
20260509153034 25 174 1.6 4.8 0.00 0.00 0.00 41 1012.2
20260509151603 23 149 4.8 14.5 0.00 0.00 0.00 62 1020.5
20260509151553 26 302 1.6 8.0 0.00 0.00 0.00 43 1014.1
20260509151536 25 168 0.0 1.6 0.00 0.00 0.00 40 1012.0
20260509150054 23 153 6.4 12.9 0.00 0.00 0.00 62 1020.5
20260509150037 26 0 1.6 4.8 0.00 0.00 0.00 38 1011.9
20260509144608 24 144 8.0 16.1 0.00 0.00 0.00 60 1020.3
20260509144557 26 328 4.8 12.9 0.00 0.00 0.00 41 1014.2
20260509144535 26 0 0.0 8.0 0.00 0.00 0.00 38 1011.7
20260509143117 25 144 6.4 16.1 0.00 0.00 0.00 59 1020.1
20260509143058 27 332 8.0 16.1 0.00 0.00 0.00 41 1014.0
20260509143035 27 0 0.0 9.7 0.00 0.00 0.00 37 1011.6
20260509141602 27 343 8.0 14.5 0.00 0.00 0.00 41 1014.2
20260509141551 24 196 8.0 22.5 0.00 0.00 0.00 60 1020.1
20260509141536 27 165 3.2 12.9 0.00 0.00 0.00 37 1011.6
20260509140108 27 331 8.0 19.3 0.00 0.00 0.00 41 1014.0
20260509140035 27 218 3.2 9.7 0.00 0.00 0.00 35 1011.6
20260509134608 25 142 11.3 20.9 0.00 0.00 0.00 55 1020.0
20260509134558 27 328 6.4 14.5 0.00 0.00 0.00 41 1013.9
20260509134547 27 148 3.2 16.1 0.00 0.00 0.00 36 1011.5
20260509133058 27 264 1.6 12.9 0.00 0.00 0.00 42 1014.1
20260509133053 25 101 8.0 17.7 0.00 0.00 0.00 56 1020.1
20260509133033 27 132 8.0 14.5 0.00 0.00 0.00 34 1011.5
20260509131555 26 105 8.0 16.1 0.00 0.00 0.00 55 1020.0
20260509131551 27 302 8.0 20.9 0.00 0.00 0.00 43 1014.2
20260509131547 27 56 1.6 16.1 0.00 0.00 0.00 35 1011.5
20260509130101 26 90 9.7 19.3 0.00 0.00 0.00 54 1020.0
20260509130058 27 262 4.8 16.1 0.00 0.00 0.00 45 1014.1
20260509130039 27 184 9.7 20.9 0.00 0.00 0.00 35 1011.5
20260509124556 25 131 6.4 19.3 0.00 0.00 0.00 56 1020.0
20260509124554 26 347 1.6 19.3 0.00 0.00 0.00 46 1014.1
20260509124534 27 216 8.0 16.1 0.00 0.00 0.00 36 1011.5
20260509123111 26 132 4.8 12.9 0.00 0.00 0.00 56 1020.1
20260509123051 27 340 9.7 20.9 0.00 0.00 0.00 46 1014.2
20260509123030 27 158 4.8 9.7 0.00 0.00 0.00 36 1011.6
20260509121610 25 193 8.0 16.1 0.00 0.00 0.00 57 1020.1
20260509121555 26 333 4.8 22.5 0.00 0.00 0.00 48 1014.3
20260509121530 26 128 1.6 11.3 0.00 0.00 0.00 40 1011.9
20260509120112 24 148 4.8 12.9 0.00 0.00 0.00 60 1020.3
20260509120055 25 33 4.8 9.7 0.00 0.00 0.00 54 1014.5
20260509120037 27 46 6.4 14.5 0.00 0.00 0.00 42 1011.9
20260509114553 25 121 6.4 16.1 0.00 0.00 0.00 57 1020.6
20260509114551 26 28 6.4 19.3 0.00 0.00 0.00 52 1014.6
20260509114536 26 298 1.6 9.7 0.00 0.00 0.00 42 1012.1
20260509113055 26 124 8.0 19.3 0.00 0.00 0.00 57 1020.7
20260509113053 27 341 9.7 24.1 0.00 0.00 0.00 50 1014.7
20260509113034 26 59 3.2 6.4 0.00 0.00 0.00 45 1012.5
20260509111603 25 182 6.4 14.5 0.00 0.00 0.00 59 1020.9
20260509111554 26 299 6.4 16.1 0.00 0.00 0.00 48 1015.1
20260509111531 25 73 3.2 9.7 0.00 0.00 0.00 45 1012.9
20260509110054 25 101 8.0 20.9 0.00 0.00 0.00 60 1021.1
20260509110032 25 46 6.4 16.1 0.00 0.00 0.00 47 1013.3
20260509104559 26 269 4.8 14.5 0.00 0.00 0.00 47 1015.3
20260509104554 25 56 4.8 17.7 0.00 0.00 0.00 61 1021.4
20260509104531 25 24 3.2 9.7 0.00 0.00 0.00 47 1013.5
20260509103105 25 46 1.6 9.7 0.00 0.00 0.00 53 1015.5
20260509103103 25 112 12.9 19.3 0.00 0.00 0.00 60 1021.4
20260509103037 25 343 4.8 9.7 0.00 0.00 0.00 47 1013.7
20260509101619 25 160 9.7 16.1 0.00 0.00 0.00 63 1021.6
20260509101550 25 281 6.4 16.1 0.00 0.00 0.00 53 1015.7
20260509101546 24 0 1.6 9.7 0.00 0.00 0.00 48 1014.0
20260509100059 26 355 9.7 20.9 0.00 0.00 0.00 51 1016.0
20260509100057 25 102 9.7 16.1 0.00 0.00 0.00 62 1022.0
20260509100034 23 1 1.6 8.0 0.00 0.00 0.00 48 1014.1
20260509094601 26 321 9.7 27.4 0.00 0.00 0.00 51 1016.2
20260509094559 23 229 8.0 19.3 0.00 0.00 0.00 65 1022.2
20260509094535 23 86 6.4 11.3 0.00 0.00 0.00 48 1014.6
20260509093106 23 189 6.4 16.1 0.00 0.00 0.00 66 1022.5
20260509093058 25 25 8.0 25.7 0.00 0.00 0.00 49 1016.4
20260509093037 23 80 1.6 8.0 0.00 0.00 0.00 48 1014.7
20260509091603 23 167 11.3 22.5 0.00 0.00 0.00 67 1022.8
20260509091556 25 19 9.7 20.9 0.00 0.00 0.00 50 1016.6
20260509091534 23 289 3.2 9.7 0.00 0.00 0.00 49 1014.9
20260509090058 25 354 9.7 17.7 0.00 0.00 0.00 53 1016.8
20260509090035 23 305 0.0 8.0 0.00 0.00 0.00 52 1015.3
20260509084602 22 191 11.3 19.3 0.00 0.00 0.00 69 1023.2
20260509084600 24 13 11.3 24.1 0.00 0.00 0.00 53 1017.2
20260509084539 21 295 3.2 9.7 0.00 0.00 0.00 55 1015.8
20260509083108 24 24 6.4 14.5 0.00 0.00 0.00 59 1017.3
20260509083054 22 167 12.9 24.1 0.00 0.00 0.00 71 1023.6
20260509083043 21 266 3.2 17.7 0.00 0.00 0.00 56 1016.1
20260509081610 22 164 11.3 20.9 0.00 0.00 0.00 73 1023.7
20260509081552 23 76 4.8 11.3 0.00 0.00 0.00 66 1017.5
20260509081537 20 235 1.6 9.7 0.00 0.00 0.00 58 1016.1
20260509080054 21 159 8.0 22.5 0.00 0.00 0.00 75 1023.9
20260509080038 20 0 1.6 12.9 0.00 0.00 0.00 59 1016.1
20260509074612 22 9 6.4 12.9 0.00 0.00 0.00 72 1017.9
20260509074557 21 190 12.9 24.1 0.00 0.00 0.00 77 1024.0
20260509074533 19 342 3.2 11.3 0.00 0.00 0.00 60 1016.1
20260509073105 21 53 6.4 16.1 0.00 0.00 0.00 75 1017.7
20260509073035 19 301 3.2 9.7 0.00 0.00 0.00 60 1016.3
20260509071559 20 158 11.3 19.3 0.00 0.00 0.00 79 1024.2
20260509071532 18 338 6.4 11.3 0.00 0.00 0.00 62 1016.3
20260509070056 21 32 6.4 16.1 0.00 0.00 0.00 77 1017.6
20260509070035 18 310 4.8 12.9 0.00 0.00 0.00 61 1016.3
20260509064619 19 198 11.3 22.5 0.00 0.00 0.00 82 1024.0
20260509064550 20 28 9.7 19.3 0.00 0.00 0.00 79 1017.3
20260509064542 17 331 0.0 3.2 0.00 0.00 0.00 68 1016.2
20260509063101 19 103 8.0 16.1 0.00 0.00 0.00 80 1017.0
20260509063056 18 171 9.7 20.9 0.00 0.00 0.00 85 1023.7
20260509063032 16 82 0.0 4.8 0.00 0.00 0.00 68 1016.1
20260509061601 18 154 11.3 20.9 0.00 0.00 0.00 88 1023.4
20260509061552 18 45 4.8 11.3 0.00 0.00 0.00 79 1016.8
20260509061532 15 0 0.0 1.6 0.00 0.00 0.00 72 1016.0
20260509060110 17 84 3.2 9.7 0.00 0.00 0.00 82 1016.7
20260509060056 17 123 9.7 22.5 0.00 0.00 0.00 89 1023.1
20260509060033 14 0 0.0 3.2 0.00 0.00 0.00 75 1015.7
20260509054602 17 138 11.3 22.5 0.00 0.00 0.00 91 1022.9
20260509054552 16 104 1.6 9.7 0.00 0.00 0.00 83 1016.5
20260509054535 13 0 0.0 1.6 0.00 0.00 0.00 73 1015.5
20260509053107 17 148 8.0 19.3 0.00 0.00 0.00 92 1022.6
20260509053104 14 150 3.2 11.3 0.00 0.00 0.00 84 1016.2
20260509053035 13 0 0.0 1.6 0.00 0.00 0.00 79 1015.5
20260509051558 13 156 4.8 11.3 0.00 0.00 0.00 85 1016.2
20260509051553 16 171 6.4 14.5 0.00 0.00 0.00 92 1022.6
20260509051536 11 0 0.0 1.6 0.00 0.00 0.00 82 1015.3
20260509050058 16 159 6.4 14.5 0.00 0.00 0.00 92 1022.4
20260509050053 12 138 6.4 12.9 0.00 0.00 0.00 86 1016.0
20260509050036 10 0 0.0 1.6 0.00 0.00 0.00 84 1015.1
20260509044559 12 154 6.4 12.9 0.00 0.00 0.00 87 1015.9
20260509044555 16 168 6.4 12.9 0.00 0.00 0.00 92 1022.2
20260509044534 10 0 0.0 1.6 0.00 0.00 0.00 85 1015.2
20260509043101 12 169 8.0 14.5 0.00 0.00 0.00 88 1015.8
20260509043055 15 168 6.4 14.5 0.00 0.00 0.00 92 1021.9
20260509043033 10 0 0.0 1.6 0.00 0.00 0.00 85 1015.0
20260509041617 15 150 8.0 14.5 0.00 0.00 0.00 91 1021.8
20260509041555 12 181 8.0 14.5 0.00 0.00 0.00 88 1015.7
20260509041532 8 0 0.0 3.2 0.00 0.00 0.00 89 1014.6
20260509040106 12 182 8.0 12.9 0.00 0.00 0.00 88 1015.4
20260509040055 15 157 8.0 16.1 0.00 0.00 0.00 91 1021.4
20260509040041 8 245 0.0 1.6 0.00 0.00 0.00 88 1014.6
20260509034554 12 168 8.0 12.9 0.00 0.00 0.00 88 1015.1
20260509034547 8 0 0.0 1.6 0.00 0.00 0.00 89 1014.5
20260509033111 12 150 6.4 12.9 0.00 0.00 0.00 88 1014.8
20260509033056 15 158 4.8 12.9 0.00 0.00 0.00 91 1021.0
20260509033034 8 0 0.0 1.6 0.00 0.00 0.00 88 1014.1
20260509031556 15 163 4.8 9.7 0.00 0.00 0.00 90 1020.7
20260509031553 12 169 8.0 12.9 0.00 0.00 0.00 88 1014.9
20260509031539 9 0 0.0 1.6 0.00 0.00 0.00 85 1014.1
20260509030056 15 166 3.2 9.7 0.00 0.00 0.00 90 1020.6
20260509030053 12 188 6.4 14.5 0.00 0.00 0.00 88 1014.7
20260509030033 8 0 0.0 4.8 0.00 0.00 0.00 87 1014.0
20260509024605 12 167 6.4 12.9 0.00 0.00 0.00 88 1014.6
20260509024600 16 156 6.4 12.9 0.00 0.00 0.00 90 1020.6
20260509024535 8 253 1.6 8.0 0.00 0.00 0.00 87 1014.0
20260509023109 15 167 4.8 9.7 0.00 0.00 0.00 90 1020.5
20260509023053 12 159 8.0 14.5 0.00 0.00 0.00 86 1014.5
20260509023035 8 0 1.6 6.4 0.00 0.00 0.00 87 1013.8
20260509021558 16 150 4.8 11.3 0.00 0.00 0.00 90 1020.5
20260509021553 12 167 8.0 16.1 0.00 0.00 0.00 86 1014.1
20260509021531 8 234 1.6 6.4 0.00 0.00 0.00 87 1013.8
20260509020105 12 177 8.0 14.5 0.00 0.00 0.00 86 1014.2
20260509020056 16 152 4.8 9.7 0.00 0.00 0.00 89 1020.4
20260509020032 8 0 0.0 4.8 0.00 0.00 0.00 89 1013.8
20260509014554 12 174 6.4 12.9 0.00 0.00 0.00 84 1014.1
20260509014533 8 0 0.0 1.6 0.00 0.00 0.00 88 1014.0
20260509013102 16 154 3.2 8.0 0.00 0.00 0.00 88 1020.4
20260509013052 13 157 8.0 14.5 0.00 0.00 0.00 83 1014.0
20260509013033 9 237 0.0 1.6 0.00 0.00 0.00 85 1013.9
20260509011601 16 165 3.2 9.7 0.00 0.00 0.00 88 1020.4
20260509011558 13 198 8.0 12.9 0.00 0.00 0.00 83 1014.2
20260509011532 10 0 0.0 1.6 0.00 0.00 0.00 83 1013.8
20260509010110 16 152 3.2 8.0 0.00 0.00 0.00 88 1020.4
20260509010059 13 164 9.7 16.1 0.00 0.00 0.00 82 1014.3
20260509010036 10 0 0.0 1.6 0.00 0.00 0.00 83 1013.9
20260509004558 16 178 4.8 8.0 0.00 0.00 0.00 87 1020.6
20260509004553 13 152 8.0 14.5 0.00 0.00 0.00 81 1014.4
20260509004535 9 0 0.0 1.6 0.00 0.00 0.00 84 1013.9
20260509003058 13 179 8.0 12.9 0.00 0.00 0.00 81 1014.5
20260509003054 17 177 3.2 9.7 0.00 0.00 0.00 86 1020.6
20260509003035 8 0 0.0 1.6 0.00 0.00 0.00 87 1013.9
20260509001558 17 153 8.0 16.1 0.00 0.00 0.00 86 1020.6
20260509001553 13 175 8.0 12.9 0.00 0.00 0.00 81 1014.6
20260509001538 9 0 0.0 1.6 0.00 0.00 0.00 86 1014.1
20260509000120 17 184 6.4 12.9 0.00 0.00 0.00 85 1020.6
20260509000103 13 163 6.4 9.7 0.00 0.00 0.00 80 1014.7
20260509000034 10 0 0.0 1.6 0.00 0.00 0.00 83 1014.1